CW1852 Weather Reports


Display with metric or nautical units.
time (UTC)temp
F
wind
direction
speed
MPH
gust
MPH
rain 1hr
in
rain 24hr
in
rain mn
in
humidity
%
barometer
mb
20260904062202 60 72 0.0 0.0 0.00 0.09 0.00 97 1008.4
20260904061203 61 72 0.0 0.0 0.00 0.09 0.00 97 1008.7
20260904060203 61 72 0.0 1.0 0.00 0.09 0.00 97 1008.8
20260904055203 61 72 0.0 0.0 0.00 0.09 0.00 97 1009.0
20260904054203 61 72 0.0 0.0 0.00 0.09 0.00 97 1009.2
20260904053224 61 72 0.0 0.0 0.00 0.09 0.00 97 1009.1
20260904052203 62 71 0.0 0.0 0.00 0.09 0.00 97 1009.0
20260904051203 62 71 0.0 0.0 0.00 0.09 0.00 97 1009.3
20260904050202 62 72 0.0 2.0 0.00 0.09 0.00 97 1009.3
20260904045203 62 71 0.0 2.0 0.00 0.09 0.00 97 1009.5
20260904044202 62 71 0.0 1.0 0.00 0.09 0.00 97 1009.4
20260904043203 62 72 0.0 0.0 0.00 0.09 0.00 97 1009.2
20260904042202 62 72 0.0 0.0 0.00 0.09 0.00 97 1009.4
20260904041203 62 71 0.0 0.0 0.00 0.09 0.00 97 1009.7
20260904040203 62 72 0.0 0.0 0.00 0.09 0.00 97 1009.8
20260904035202 62 71 0.0 1.0 0.00 0.09 0.09 97 1010.0
20260904034203 62 71 0.0 0.0 0.00 0.09 0.09 97 1010.0
20260904033202 62 71 0.0 0.0 0.00 0.09 0.09 97 1010.0
20260904032203 62 71 0.0 2.0 0.00 0.09 0.09 97 1010.0
20260904031203 62 71 0.0 2.0 0.00 0.09 0.09 97 1010.0
20260904030203 62 71 0.0 2.0 0.00 0.09 0.09 97 1010.0
20260904025203 62 71 0.0 1.0 0.00 0.09 0.09 97 1010.1
20260904024203 61 71 1.0 2.0 0.00 0.09 0.09 97 1010.4
20260904023203 61 71 0.0 1.0 0.00 0.09 0.09 97 1010.1
20260904022203 61 71 0.0 1.0 0.00 0.09 0.09 97 1010.0
20260904021203 61 71 0.0 1.0 0.00 0.09 0.09 97 1010.2
20260904020203 61 71 0.0 1.0 0.00 0.09 0.09 97 1010.2
20260904015202 61 71 0.0 1.0 0.00 0.09 0.09 97 1010.1
20260904014203 62 71 0.0 2.0 0.00 0.09 0.09 97 1010.4
20260904013202 62 71 0.0 1.0 0.00 0.09 0.09 97 1010.5
20260904012203 63 71 0.0 2.0 0.00 0.09 0.09 97 1010.4
20260904011224 63 71 1.0 2.0 0.00 0.09 0.09 97 1010.4
20260904010203 63 71 1.0 3.0 0.00 0.09 0.09 97 1010.5
20260904005203 63 71 1.0 3.0 0.00 0.09 0.09 97 1010.5
20260904004223 63 72 0.0 1.0 0.00 0.09 0.09 97 1010.4
20260904003203 63 72 0.0 1.0 0.00 0.09 0.09 97 1010.3
20260904002204 63 72 0.0 1.0 0.00 0.09 0.09 97 1010.4
20260904001223 63 72 0.0 4.0 0.00 0.09 0.09 97 1010.3
20260904000204 63 73 0.0 2.0 0.00 0.09 0.09 97 1010.5
20260903235203 63 73 0.0 2.0 0.00 0.09 0.09 97 1010.5
20260903234224 63 73 0.0 2.0 0.00 0.09 0.09 97 1010.6
20260903233202 63 73 0.0 2.0 0.00 0.09 0.09 97 1010.6
20260903232203 63 73 0.0 2.0 0.00 0.09 0.09 97 1010.6
20260903231202 63 73 0.0 1.0 0.00 0.09 0.09 97 1010.6
20260903230224 63 73 0.0 0.0 0.00 0.09 0.09 97 1010.4
20260903225203 63 73 0.0 1.0 0.00 0.09 0.09 97 1010.5
20260903224202 63 73 0.0 2.0 0.00 0.09 0.09 97 1010.5
20260903223203 63 73 0.0 1.0 0.00 0.09 0.09 97 1010.6
20260903222203 63 73 0.0 2.0 0.00 0.09 0.09 97 1010.6
20260903221202 63 73 0.0 2.0 0.00 0.09 0.09 97 1010.8
20260903220203 63 73 0.0 3.0 0.00 0.09 0.09 97 1010.7
20260903215202 63 73 1.0 3.0 0.00 0.09 0.09 97 1010.7
20260903214203 62 73 2.0 7.0 0.00 0.09 0.09 96 1010.5
20260903213202 62 74 3.0 7.0 0.00 0.09 0.09 96 1010.6
20260903212224 62 77 1.0 6.0 0.00 0.09 0.09 96 1010.6
20260903211203 62 76 2.0 8.0 0.00 0.09 0.09 96 1010.7
20260903210202 62 74 2.0 6.0 0.00 0.09 0.09 96 1010.7
20260903205203 62 76 2.0 6.0 0.00 0.09 0.09 97 1010.8
20260903204202 62 75 3.0 7.0 0.00 0.09 0.09 96 1010.9
20260903203203 62 77 1.0 7.0 0.00 0.09 0.09 97 1010.9
20260903202203 62 78 2.0 6.0 0.00 0.09 0.09 97 1011.0
20260903200224 62 86 2.0 4.0 0.00 0.09 0.09 96 1011.2
20260903195202 62 88 2.0 6.0 0.00 0.09 0.09 96 1011.4
20260903194224 62 90 2.0 4.0 0.00 0.09 0.09 97 1011.6
20260903193203 62 91 1.0 3.0 0.00 0.09 0.09 96 1011.9
20260903192202 62 91 1.0 4.0 0.00 0.09 0.09 97 1012.0
20260903191203 62 91 2.0 4.0 0.00 0.09 0.09 96 1012.1
20260903190203 62 92 1.0 4.0 0.00 0.09 0.09 97 1012.2
20260903185224 62 92 0.0 7.0 0.00 0.09 0.09 96 1012.4
20260903184203 62 133 2.0 5.0 0.00 0.09 0.09 96 1012.4
20260903183202 62 144 1.0 4.0 0.00 0.09 0.09 96 1012.4
20260903182203 62 145 0.0 2.0 0.00 0.09 0.09 96 1012.5
20260903181202 62 145 0.0 4.0 0.00 0.09 0.09 96 1012.7
20260903180203 63 145 1.0 6.0 0.00 0.09 0.09 97 1012.6
20260903175203 63 171 0.0 4.0 0.00 0.09 0.09 96 1012.5
20260903174203 62 173 1.0 3.0 0.00 0.09 0.09 96 1012.7
20260903173203 63 171 1.0 2.0 0.00 0.09 0.09 97 1012.8
20260903172202 63 171 1.0 3.0 0.00 0.09 0.09 96 1012.7
20260903171224 63 171 0.0 1.0 0.00 0.09 0.09 96 1012.8
20260903170202 63 171 0.0 2.0 0.00 0.09 0.09 97 1012.9
20260903165204 63 171 0.0 2.0 0.01 0.09 0.09 96 1013.1
20260903164202 63 171 0.0 2.0 0.01 0.09 0.09 97 1013.2
20260903163203 63 171 1.0 3.0 0.01 0.09 0.09 97 1013.2
20260903162203 63 184 0.0 4.0 0.01 0.09 0.09 97 1013.3
20260903161202 62 189 0.0 2.0 0.01 0.09 0.09 96 1013.4
20260903160203 62 189 0.0 2.0 0.01 0.09 0.09 96 1013.7
20260903155203 62 189 1.0 2.0 0.00 0.08 0.08 96 1014.0
20260903154203 62 189 0.0 2.0 0.00 0.08 0.08 96 1014.1
20260903153203 62 189 0.0 3.0 0.00 0.08 0.08 96 1014.2
20260903152223 62 189 1.0 2.0 0.00 0.08 0.08 96 1014.5
20260903151203 62 189 1.0 2.0 0.00 0.08 0.08 96 1014.5
20260903150203 62 189 1.0 3.0 0.00 0.08 0.08 96 1014.6
20260903145224 62 189 1.0 3.0 0.00 0.08 0.08 96 1014.6
20260903144203 62 189 0.0 3.0 0.00 0.08 0.08 96 1014.5
20260903143223 62 189 1.0 3.0 0.00 0.08 0.08 96 1014.6
20260903142203 62 191 1.0 4.0 0.00 0.08 0.08 96 1014.8
20260903141202 62 192 1.0 2.0 0.00 0.08 0.08 96 1014.9
20260903140203 62 191 2.0 3.0 0.00 0.08 0.08 96 1014.9
20260903135203 62 190 1.0 3.0 0.02 0.07 0.07 96 1014.9
20260903134202 62 190 1.0 3.0 0.02 0.07 0.07 96 1015.0
20260903133204 61 190 0.0 6.0 0.02 0.07 0.07 96 1015.1
20260903132202 61 165 2.0 7.0 0.01 0.06 0.06 96 1015.3
20260903131203 61 201 2.0 5.0 0.00 0.05 0.05 96 1015.4
20260903130202 61 209 2.0 7.0 0.00 0.05 0.05 96 1015.2
20260903125203 62 178 4.0 9.0 0.01 0.05 0.05 96 1015.2
20260903124202 62 207 2.0 10.0 0.01 0.05 0.05 96 1014.8
20260903123203 62 179 3.0 7.0 0.01 0.05 0.05 96 1014.8
20260903122225 62 177 1.0 5.0 0.01 0.05 0.05 96 1014.8
20260903121202 62 176 2.0 5.0 0.01 0.05 0.05 96 1015.0
20260903120203 62 176 1.0 6.0 0.00 0.04 0.04 96 1015.0
20260903115224 62 172 2.0 9.0 0.04 0.04 0.04 96 1015.3
20260903114202 62 191 0.0 6.0 0.04 0.04 0.04 96 1015.3
20260903113203 62 175 0.0 2.0 0.04 0.04 0.04 96 1015.4
20260903112203 62 175 1.0 2.0 0.03 0.03 0.03 96 1015.3
20260903111203 62 175 0.0 2.0 0.01 0.01 0.01 96 1015.4
20260903110202 62 175 0.0 2.0 0.00 0.00 0.00 96 1015.4
20260903105203 62 175 0.0 2.0 0.00 0.00 0.00 96 1015.5
20260903104202 62 175 0.0 3.0 0.00 0.00 0.00 96 1015.6
20260903103203 62 175 1.0 2.0 0.00 0.00 0.00 96 1015.8
20260903102203 62 175 0.0 1.0 0.00 0.00 0.00 96 1015.6
20260903101202 62 175 0.0 1.0 0.00 0.00 0.00 96 1015.6
20260903100203 62 175 0.0 1.0 0.00 0.00 0.00 95 1015.6
20260903095224 62 175 0.0 1.0 0.00 0.00 0.00 96 1015.7
20260903094203 61 175 0.0 2.0 0.00 0.00 0.00 95 1015.4
20260903093203 61 175 0.0 0.0 0.00 0.00 0.00 95 1015.3
20260903092202 61 175 0.0 0.0 0.00 0.00 0.00 95 1015.4
20260903090223 61 175 0.0 0.0 0.00 0.00 0.00 95 1015.5
20260903085203 61 175 0.0 3.0 0.00 0.00 0.00 95 1015.6
20260903084224 62 175 0.0 2.0 0.00 0.00 0.00 95 1015.6
20260903083203 61 175 0.0 2.0 0.00 0.00 0.00 95 1015.6
20260903082203 61 175 0.0 1.0 0.00 0.00 0.00 95 1015.9
20260903081224 61 175 0.0 1.0 0.00 0.00 0.00 95 1016.1
20260903080202 61 175 0.0 1.0 0.00 0.00 0.00 95 1016.1
20260903075203 61 175 0.0 3.0 0.00 0.00 0.00 94 1016.2
20260903074202 61 175 0.0 5.0 0.00 0.00 0.00 94 1016.2
20260903073203 61 178 1.0 4.0 0.00 0.00 0.00 94 1016.5
20260903072224 61 178 0.0 5.0 0.00 0.00 0.00 95 1016.5
20260903071202 61 177 1.0 4.0 0.00 0.00 0.00 95 1016.7
20260903070203 61 177 0.0 0.0 0.00 0.00 0.00 95 1017.0
20260903065224 61 177 0.0 0.0 0.00 0.00 0.00 95 1017.2
20260903064203 61 177 0.0 3.0 0.00 0.00 0.00 94 1017.3
20260903063203 61 177 0.0 6.0 0.00 0.00 0.00 95 1017.3